Regional Weather Roundup
Issued by NWS

Home | Current Version | Previous Version | Graphics & Text | Print | Product List | Glossary On
Versions: 1 2 3 4 5 6 7 8 9 10 11 12 13 14 15 16 17 18 19 20 21 22 23 24 25 26 27 28 29 30 31 32 33 34 35 36 37 38 39 40 41 42 43 44 45 46 47 48 49 50
000
ASUS43 KIND 041409
RWRIN

WEATHER ROUNDUP FOR INDIANA
NATIONAL WEATHER SERVICE INDIANAPOLIS IN
900 AM EST WED MAR 04 2015

NOTE: "FAIR" INDICATES FEW OR NO CLOUDS BELOW 12,000 FEET WITH NO
SIGNIFICANT WEATHER AND/OR OBSTRUCTIONS TO VISIBILITY.

* - STATION DOES NOT REPORT WEATHER SUCH AS PRECIPITATION OR FOG.

+ - STATION NOT QUALITY CONTROLLED BY THE NATIONAL WEATHER SERVICE.
    USE DATA WITH CAUTION...ESPECIALLY DEWPOINT AND RELATIVE
    HUMIDITY OBSERVATIONS.

INZ001>003-010>013-019-020-041500-
NORTHWEST INDIANA

CITY           SKY/WX    TMP DP  RH WIND       PRES   REMARKS
GARY /AIRPORT/ PTSUNNY   23  12  63 NW21      30.04R WCI   8
KNOX *+          N/A     28  18  64 NW15      30.00R WCI  17
LA PORTE +     CLOUDY    28  22  79 NW12G18   30.01R WCI  17
MICHIGAN CITY+ CLOUDY    27  18  69 NW8       30.03R WCI  18
MONTICELLO +   CLOUDY    27  23  86 NW7       30.02R WCI  19
RENSSELAER +   PTSUNNY   21  19  93 W9        30.04R WCI  11
VALPARAISO     CLOUDY    25  18  74 NW8       30.01R WCI  16

$$

LMZ046-743>745-041500-
SOUTHERN LAKE MICHIGAN

STATION/POSITION TIME  TEMP WIND        PRES
                       AIR  DIR/SP/G
                 (UTC) (F)  (DEG/KT/KT) (MB)
MICHIGAN CITY    1400   24  280/ 15/ 18   N/A

$$

INZ004-005-014>016-021>024-041500-
NORTH CENTRAL INDIANA

CITY           SKY/WX    TMP DP  RH WIND       PRES   REMARKS
ELKHART        CLOUDY    28  19  69 NW10      29.99R WCI  19
GOSHEN         CLOUDY    29  24  82 W10       29.97R WCI  20
LOGANSPORT +   CLOUDY    30  27  86 W8        30.01R WCI  23
PERU/GRISSOM   CLOUDY    30  26  85 NW7       29.98R WCI  23
ROCHESTER +    CLOUDY    32  28  86 NW10      29.99R WCI  24
SOUTH BEND     CLOUDY    28  21  75 N16       30.00R WCI  16
WARSAW +       CLOUDY    30  27  86 W9        29.98R FOG     WCI  22

$$

INZ006>009-017-018-025>027-041500-
NORTHEAST INDIANA

CITY           SKY/WX    TMP DP  RH WIND       PRES   REMARKS
ANGOLA *+      CLOUDY    30  21  69 NW3       29.94R
AUBURN +       PTSUNNY   32  27  80 W7        29.97R WCI  26
FORT WAYNE     CLOUDY    31  25  78 W8        29.98R WCI  23
HUNTINGTON +   CLOUDY    31  22  68 NW5       29.97S WCI  26

$$

INZ028-029-035-036-043>045-051>053-041500-
WEST CENTRAL INDIANA

CITY           SKY/WX    TMP DP  RH WIND       PRES   REMARKS
CRAWFORDSVL +  CLOUDY    24  19  78 NW13      30.02R WCI  13
GREENCASTLE +  CLOUDY    30  25  80 N13       30.01R HAZE    WCI  20
LAFAYETTE      CLOUDY    24  20  84 NW10      30.04R WCI  14
TERRE HAUTE    CLOUDY    27  22  81 NW10      30.04R WCI  17

$$

INZ030>032-037>040-046>048-054>057-064-065-041500-
CENTRAL INDIANA

CITY           SKY/WX    TMP DP  RH WIND       PRES   REMARKS
ANDERSON       CLOUDY    30  28  93 NW12      29.99  FOG     WCI  21
CP ATTERBURY + CLOUDY    34  30  86 NW7       30.01R WCI  28
FRANKFORT +    CLOUDY    29  26  89 W10       30.01R WCI  20
GREENWOOD *+   CLOUDY    32  25  74 NW9       30.00R WCI  24
INDIANAPOLIS   CLOUDY    31  25  78 NW13      29.99R WCI  21
-EAGLE CREEK   CLOUDY    30  26  85 NW10      30.00R WCI  21
KOKOMO *+      CLOUDY    30  27  86 NW7       29.99R WCI  23
MARION +       CLOUDY    29  25  84 NW3       29.99R
MT COMFORT *+  CLOUDY    32  23  69 NW10      29.99S WCI  24
SHELBYVILLE    CLOUDY    35  28  75 N10       29.99R WCI  27
ZIONSVILLE +   CLOUDY    31  26  80 NW7       30.00R HAZE    WCI  24

$$

INZ033-034-041-042-049-050-058-059-041500-
EAST CENTRAL INDIANA

CITY           SKY/WX    TMP DP  RH WIND       PRES   REMARKS
MUNCIE         CLOUDY    32  28  85 NW9       29.98R FOG     WCI  24

$$

INZ060-061-067>069-081>083-085>088-041500-
SOUTHWEST INDIANA

CITY           SKY/WX    TMP DP  RH WIND       PRES   REMARKS
EVANSVILLE     LGT RAIN  36  32  85 N7        30.03R FOG
HUNTINGBURG *+ CLOUDY    34  30  86 N7        30.01R WCI  28
WASHINGTON +   CLOUDY    33  30  90 N8        30.02S WCI  26

$$

INZ062-063-066-070>080-084-089>092-041500-
SOUTH CENTRAL AND SOUTHEAST INDIANA

CITY           SKY/WX    TMP DP  RH WIND       PRES   REMARKS
BLOOMINGTON    CLOUDY    33  28  81 N7        30.01R WCI  27
NORTH VERNON + CLOUDY    34  34 100 NW6       30.00R FOG     WCI  29
SEYMOUR +      CLOUDY    36  34  93 N3        30.01R

$$




USA.gov is the U.S. government's official web portal to all federal, state and local government web resources and services.